This is the latest recevied weather packets stored in our database for station/object DC4XK-10. If no packets are shown the sender has not sent any weather packets the latest 10 day(s).
| Time | Temp. | Humidity | Pressure | Rain* | Wind** | Luminosity | Snow |
|---|---|---|---|---|---|---|---|
| 1777656533 | 18.33° C | 53% | 1022.5 hPa | 0 mm | 0 m/s | - | - |
| 1777655931 | 18.89° C | 54% | 1022.8 hPa | 0 mm | 0 m/s | - | - |
| 1777655330 | 18.89° C | 51% | 1022.9 hPa | 0 mm | 0 m/s | - | - |
| 1777654733 | 19.44° C | 51% | 1023 hPa | 0 mm | 0 m/s | - | - |
| 1777654131 | 20° C | 51% | 1023.2 hPa | 0 mm | 0 m/s | - | - |
| 1777653531 | 20.56° C | 52% | 1023.4 hPa | 0 mm | 0 m/s | - | - |
| 1777652932 | 20.56° C | 51% | 1023.6 hPa | 0 mm | 0.45 m/s, 107° | - | - |
| 1777652331 | 21.11° C | 51% | 1023.5 hPa | 0 mm | 0 m/s | - | - |
| 1777651731 | 21.11° C | 50% | 1023.7 hPa | 0 mm | 0 m/s | - | - |
| 1777651131 | 21.11° C | 47% | 1024 hPa | 0 mm | 0 m/s | - | - |
| 1777650531 | 21.67° C | 45% | 1023.8 hPa | 0 mm | 0.45 m/s, 55° | - | - |
| 1777649931 | 22.78° C | 42% | 1024.1 hPa | 0 mm | 0.45 m/s, 106° | - | - |
| 1777649331 | 21.67° C | 44% | 1024.3 hPa | 0 mm | 0 m/s | - | - |
| 1777648731 | 21.67° C | 45% | 1024.3 hPa | 0 mm | 0.45 m/s, 48° | - | - |
| 1777648131 | 23.33° C | 42% | 1024.2 hPa | 0 mm | 0 m/s | - | - |
| 1777647531 | 22.22° C | 44% | 1024.3 hPa | 0 mm | 0.45 m/s, 62° | - | - |
| 1777646931 | 22.78° C | 41% | 1024.4 hPa | 0 mm | 0 m/s | - | - |
| 1777646331 | 24.44° C | 39% | 1024.7 hPa | 0 mm | 0 m/s | - | - |
| 1777645730 | 25° C | 34% | 1024.9 hPa | 0 mm | 0 m/s | - | - |
| 1777645131 | 24.44° C | 35% | 1024.6 hPa | 0 mm | 0 m/s | - | - |
| 1777644532 | 23.33° C | 40% | 1024.8 hPa | 0 mm | 0.45 m/s, 109° | - | - |
| 1777643930 | 23.89° C | 39% | 1025.1 hPa | 0 mm | 0.45 m/s, 59° | - | - |
| 1777643331 | 26.11° C | 32% | 1025.1 hPa | 0 mm | 0.89 m/s, 145° | - | - |
| 1777642733 | 23.89° C | 35% | 1025.1 hPa | 0 mm | 0 m/s | - | - |
| 1777642131 | 24.44° C | 33% | 1025.5 hPa | 0 mm | 0 m/s | - | - |
* Rain latest hour (hover to see other rain measurements)
** Current wind speed in m/s (hover to see current wind gust speed)